Location: Seasalter
(51.3333°N, 1.0167°E)
Time: 13:55:49
(UTC+00:00)

Cosmos 1766 Rocket - Pass Details

Date: 26 September 2023
Orbit: 602 x 630 km, 82.5° (Epoch: 10 December)

Event Time Altitude Azimuth Distance (km) Brightness Sun altitude
Rises 03:41:51 0° 346° (NNW) 2,885 7.1 -19.9°
Reaches altitude 10° 03:44:05 10° 343° (NNW) 1,980 6.2 -19.6°
Maximum altitude 03:48:23 59° 264° (W) 715 3.5 -19.0°
Enters shadow 03:50:59 23° 192° (SSW) 1,324 4.9 -18.6°
